Weather History for KLRO - November, 2013

Change the Weather History Date:

Thursday, November 7, 2013

  Actual Average (KCHS) Record (KCHS)
Temperature  
Mean Temperature 68 °F 61 °F  
Max Temperature 75 °F 72 °F 84 °F (1986)
Min Temperature 60 °F 50 °F 26 °F (1939)
Degree Days  
Heating Degree Days 0 6  
Month to date heating degree days 35  
Since 1 July heating degree days 104  
Cooling Degree Days 4 1  
Month to date cooling degree days 12  
Year to date cooling degree days 2276  
Growing Degree Days 18 (Base 50)    
Moisture  
Dew Point 67 °F    
Average Humidity 100    
Maximum Humidity 100    
Minimum Humidity 100    
Precipitation  
Precipitation 0.00 in 0.09 in 1.25 in (2006)
Month to date precipitation 0.59  
Year to date precipitation 46.08  
Sea Level Pressure  
Sea Level Pressure 30.01 in    
Wind  
Wind Speed 3 mph (NW)    
Max Wind Speed 8 mph    
Max Gust Speed -    
Visibility 9 miles    
Events Rain    
T = Trace of Precipitation, MM = Missing Value Source: NWS Daily Summary

Daily Weather History Graph

Daily Weather History Graph

Search for Another Location

Airport or City:

Trip Planner

Search our weather history database for the weather conditions in past years. The results will help you decide how hot, cold, wet, or windy it might be!

Date:

Astronomy

Nov. 07, 2013 Rise Set
Actual Time 6:42 AM EST 5:22 PM EST
Civil Twilight 6:16 AM EST 5:48 PM EST
Nautical Twilight 5:47 AM EST 6:17 PM EST
Astronomical Twilight 5:18 AM EST 6:47 PM EST
Moon 10:46 AM EST (11/7) 9:34 PM EST (11/7)
Length of Visible Light 11h 31m
Length of Day
10h 40m
Waxing Crescent, 22% of the Moon is Illuminated
Nov 7
Waxing Crescent
Nov 10
First Quarter
Nov 17
Full
Nov 25
Last Quarter
Dec 2
New

Hourly Weather History & Observations

Time (EST) Temp. Dew Point Humidity Pressure Visibility Wind Dir Wind Speed Gust Speed Precip Events Conditions
12:15 AM 64.4 °F 64.4 °F 100% 30.09 in 1.5 mi NE 3.5 mph - N/A   Overcast
12:35 AM 64.4 °F 64.4 °F 100% 30.09 in 2.0 mi NE 3.5 mph - N/A   Overcast
12:55 AM 64.4 °F 64.4 °F 100% 30.08 in 3.0 mi NNE 5.8 mph - N/A Rain Light Rain
1:15 AM 64.4 °F 64.4 °F 100% 30.07 in 5.0 mi NNE 4.6 mph - N/A   Mostly Cloudy
1:35 AM 64.4 °F 64.4 °F 100% 30.07 in 10.0 mi Calm Calm - N/A Rain Light Rain
1:55 AM 66.2 °F 66.2 °F 100% 30.06 in 9.0 mi Calm Calm - N/A Rain Light Rain
2:15 AM 66.2 °F 66.2 °F 100% 30.05 in 10.0 mi Calm Calm - N/A Rain Light Rain
2:55 AM 66.2 °F 66.2 °F 100% 30.03 in 5.0 mi Calm Calm - N/A Rain Light Rain
3:15 AM 66.2 °F 66.2 °F 100% 30.02 in 10.0 mi Calm Calm - N/A Rain Light Rain
3:35 AM 64.4 °F 64.4 °F 100% 30.01 in 10.0 mi NNE 5.8 mph - N/A Rain Light Rain
3:55 AM 64.4 °F 64.4 °F 100% 30.02 in 10.0 mi NW 5.8 mph - N/A Rain Light Rain
4:15 AM 66.2 °F 66.2 °F 100% 30.02 in 10.0 mi NW 4.6 mph - N/A   Overcast
4:35 AM 64.4 °F 64.4 °F 100% 30.02 in 10.0 mi WNW 3.5 mph - N/A Rain Light Rain
4:55 AM 64.4 °F 64.4 °F 100% 30.02 in 10.0 mi Calm Calm - N/A   Overcast
5:15 AM 66.2 °F 66.2 °F 100% 30.02 in 10.0 mi NW 3.5 mph - N/A Rain Light Rain
5:35 AM 66.2 °F 66.2 °F 100% 30.02 in 10.0 mi Calm Calm - N/A Rain Light Rain
5:55 AM 64.4 °F 64.4 °F 100% 30.02 in 10.0 mi NNW 3.5 mph - N/A Rain Light Rain
6:15 AM 66.2 °F 66.2 °F 100% 30.01 in 10.0 mi Calm Calm - N/A Rain Light Rain
6:35 AM 66.2 °F 66.2 °F 100% 30.01 in 10.0 mi Calm Calm - N/A Rain Light Rain
6:55 AM 64.4 °F 64.4 °F 100% 30.01 in 10.0 mi NW 4.6 mph - N/A Rain Light Rain
7:15 AM 64.4 °F 64.4 °F 100% 30.03 in 9.0 mi NNW 4.6 mph - N/A Rain Light Rain
7:35 AM 64.4 °F 64.4 °F 100% 30.03 in 7.0 mi North 3.5 mph - N/A   Overcast
7:55 AM 64.4 °F 64.4 °F 100% 30.03 in 7.0 mi Calm Calm - N/A Rain Light Rain
8:15 AM 64.4 °F 64.4 °F 100% 30.04 in 6.0 mi Calm Calm - N/A Rain Light Rain
8:35 AM 64.4 °F 64.4 °F 100% 30.05 in 4.0 mi NW 4.6 mph - N/A Rain Light Rain
8:55 AM 64.4 °F 64.4 °F 100% 30.06 in 3.0 mi WNW 5.8 mph - N/A Rain Light Rain
9:15 AM 64.4 °F 64.4 °F 100% 30.06 in 3.0 mi WNW 3.5 mph - N/A Rain Light Rain
9:35 AM 64.4 °F 64.4 °F 100% 30.06 in 4.0 mi Calm Calm - N/A Rain Light Rain
9:55 AM 64.4 °F 64.4 °F 100% 30.06 in 4.0 mi Calm Calm - N/A Rain Light Rain
10:15 AM 66.2 °F 66.2 °F 100% 30.05 in 5.0 mi Calm Calm - N/A   Mostly Cloudy
10:35 AM 66.2 °F 66.2 °F 100% 30.05 in 7.0 mi Calm Calm - N/A   Overcast
10:55 AM 66.2 °F 66.2 °F 100% 30.05 in 8.0 mi Calm Calm - N/A   Overcast
11:15 AM 68.0 °F 68.0 °F 100% 30.04 in 10.0 mi Calm Calm - N/A   Mostly Cloudy
11:35 AM 69.8 °F 69.8 °F 100% 30.03 in 10.0 mi Calm Calm - N/A   Partly Cloudy
11:55 AM 71.6 °F 71.6 °F 100% 30.02 in 10.0 mi WNW 6.9 mph - N/A   Partly Cloudy
12:15 PM 71.6 °F 71.6 °F 100% 30.01 in 10.0 mi West 3.5 mph - N/A   Partly Cloudy
12:35 PM 71.6 °F 71.6 °F 100% 30.00 in 10.0 mi West 6.9 mph - N/A   Clear
12:55 PM 73.4 °F 73.4 °F 100% 29.99 in 10.0 mi WNW 4.6 mph - N/A   Clear
1:15 PM 73.4 °F 73.4 °F 100% 29.97 in 10.0 mi SW 5.8 mph - N/A   Clear
1:35 PM 73.4 °F 73.4 °F 100% 29.97 in 10.0 mi Calm Calm - N/A   Clear
1:55 PM 73.4 °F 73.4 °F 100% 29.97 in 10.0 mi SW 3.5 mph - N/A   Clear
2:15 PM 73.4 °F 73.4 °F 100% 29.96 in 10.0 mi Calm Calm - N/A   Clear
2:35 PM 75.2 °F 75.2 °F 100% 29.96 in 10.0 mi Calm Calm - N/A   Clear
2:55 PM 75.2 °F 75.2 °F 100% 29.96 in 10.0 mi WNW 6.9 mph - N/A   Scattered Clouds
3:15 PM 75.2 °F 75.2 °F 100% 29.95 in 10.0 mi WSW 5.8 mph - N/A   Partly Cloudy
3:35 PM 75.2 °F 75.2 °F 100% 29.95 in 10.0 mi WSW 5.8 mph - N/A   Clear
3:55 PM 75.2 °F 75.2 °F 100% 29.95 in 10.0 mi WSW 8.1 mph - N/A   Mostly Cloudy
4:15 PM 73.4 °F 73.4 °F 100% 29.95 in 10.0 mi West 5.8 mph - N/A   Scattered Clouds
4:35 PM 73.4 °F 73.4 °F 100% 29.95 in 10.0 mi Calm Calm - N/A   Mostly Cloudy
4:55 PM 73.4 °F 73.4 °F 100% 29.95 in 10.0 mi West 3.5 mph - N/A   Mostly Cloudy
5:55 PM 71.6 °F 71.6 °F 100% 29.97 in 10.0 mi Calm Calm - N/A   Clear
6:15 PM 69.8 °F 69.8 °F 100% 29.97 in 10.0 mi Calm Calm - N/A   Clear
6:35 PM 69.8 °F 69.8 °F 100% 29.98 in 10.0 mi Calm Calm - N/A   Clear
6:55 PM 68.0 °F 68.0 °F 100% 29.98 in 10.0 mi Calm Calm - N/A   Clear
7:15 PM 66.2 °F 66.2 °F 100% 29.99 in 10.0 mi Calm Calm - N/A   Clear
7:35 PM 64.4 °F 64.4 °F 100% 29.99 in 10.0 mi Calm Calm - N/A   Clear
7:55 PM 64.4 °F 64.4 °F 100% 30.00 in 10.0 mi Calm Calm - N/A   Clear
8:15 PM 64.4 °F 64.4 °F 100% 30.00 in 10.0 mi Calm Calm - N/A   Clear
8:35 PM 62.6 °F 62.6 °F 100% 30.00 in 9.0 mi Calm Calm - N/A   Clear
8:55 PM 62.6 °F 62.6 °F 100% 30.01 in 10.0 mi Calm Calm - N/A   Clear
9:15 PM 64.4 °F 64.4 °F 100% 30.01 in 10.0 mi Calm Calm - N/A Rain Light Rain
9:35 PM 64.4 °F 64.4 °F 100% 30.01 in 10.0 mi Calm Calm - N/A   Clear
9:55 PM 64.4 °F 64.4 °F 100% 30.01 in 9.0 mi Calm Calm - N/A Rain Light Rain
10:15 PM 64.4 °F 64.4 °F 100% 30.01 in 10.0 mi Calm Calm - N/A Rain Light Rain
10:35 PM 64.4 °F 64.4 °F 100% 30.01 in 10.0 mi Calm Calm - N/A Rain Light Rain
10:55 PM 62.6 °F 62.6 °F 100% 30.02 in 10.0 mi North 5.8 mph - N/A Rain Light Rain
11:15 PM 64.4 °F 64.4 °F 100% 30.02 in 10.0 mi North 5.8 mph - N/A Rain Light Rain
11:35 PM 62.6 °F 62.6 °F 100% 30.03 in 10.0 mi North 8.1 mph - N/A Rain Light Rain
11:55 PM 60.8 °F 60.8 °F 100% 30.04 in 10.0 mi North 8.1 mph - N/A Rain Light Rain